Springfield, OH

12:19 AM EDT on May 25, 2018 (GMT -0400)
Springfield-Beckley Municipal

Weather History for KSGH - January, 2014

Change the Weather History Date:

Friday, January 17, 2014

  Actual Average (KFFO) Record (KFFO)
Temperature  
Mean Temperature 18 °F -  
Max Temperature 32 °F 32 °F 59 °F (2017)
Min Temperature 3 °F 16 °F -7 °F (2009)
Degree Days  
Heating Degree Days 48    
Moisture  
Dew Point 20 °F    
Average Humidity 87    
Maximum Humidity 100    
Minimum Humidity 67    
Precipitation  
Precipitation 0.02 in - - ()
Sea Level Pressure  
Sea Level Pressure 29.85 in    
Wind  
Wind Speed 6 mph (SSW)    
Max Wind Speed 15 mph    
Max Gust Speed 17 mph    
Visibility 4 miles    
Events Fog , Snow    
Averages and records for this station are not official NWS values.
T = Trace of Precipitation, MM = Missing Value Source: NWS Daily Summary

Daily Weather History Graph

Daily Weather History Graph

Search for Another Location

Airport or City:

Astronomy

Jan. 17, 2014 Rise Set
Actual Time 7:54 AM EST 5:37 PM EST
Civil Twilight 7:24 AM EST 6:06 PM EST
Nautical Twilight 6:51 AM EST 6:40 PM EST
Astronomical Twilight 6:19 AM EST 7:12 PM EST
Moon 7:22 PM EST (1/17) 8:21 AM EST (1/17)
Length of Visible Light 10h 42m
Length of Day
9h 43m
Full, 98% of the Moon is Illuminated
Jan 17
Full
Jan 24
Last Quarter
Jan 30
New
Feb 6
First Quarter
Feb 14
Full

Hourly Weather History & Observations

Time (EST) Temp. Windchill Dew Point Humidity Pressure Visibility Wind Dir Wind Speed Gust Speed Precip Events Conditions
12:03 AM 30.2 °F 19.8 °F 26.6 °F 86% 29.77 in 9.0 mi SW 13.8 mph - N/A   Overcast
12:56 AM 30.0 °F 19.1 °F 28.0 °F 92% 29.80 in 8.0 mi SW 15.0 mph - N/A   Overcast
1:21 AM 30.2 °F 20.8 °F 26.6 °F 86% 29.77 in 8.0 mi SW 11.5 mph - N/A   Mostly Cloudy
1:56 AM 28.0 °F 20.0 °F 26.1 °F 92% 29.81 in 8.0 mi SSW 8.1 mph - N/A   Clear
2:56 AM 27.1 °F 18.9 °F 26.1 °F 96% 29.81 in 7.0 mi SSW 8.1 mph - N/A   Scattered Clouds
3:56 AM 28.0 °F 20.8 °F 27.1 °F 96% 29.81 in 7.0 mi South 6.9 mph - N/A   Mostly Cloudy
4:30 AM 28.4 °F 22.2 °F 26.6 °F 93% 29.76 in 7.0 mi South 5.8 mph - N/A   Overcast
4:44 AM 28.4 °F 21.2 °F 26.6 °F 93% 29.76 in 7.0 mi South 6.9 mph - N/A   Overcast
4:56 AM 29.1 °F 22.1 °F 28.0 °F 96% 29.80 in 7.0 mi SSW 6.9 mph - N/A   Overcast
5:56 AM 30.0 °F 22.4 °F 29.1 °F 96% 29.79 in 7.0 mi South 8.1 mph - 0.00 in   Overcast
6:35 AM 28.4 °F 22.2 °F 28.4 °F 100% 29.76 in 7.0 mi South 5.8 mph - 0.00 in   Scattered Clouds
6:45 AM 28.4 °F 23.3 °F 28.4 °F 100% 29.76 in 7.0 mi SSW 4.6 mph - 0.00 in   Mostly Cloudy
6:56 AM 30.0 °F 26.5 °F 29.1 °F 96% 29.80 in 7.0 mi South 3.5 mph - 0.00 in   Mostly Cloudy
8:56 AM 32.0 °F 25.6 °F 30.0 °F 92% 29.80 in 6.0 mi South 6.9 mph - 0.00 in   Overcast
9:37 AM 32.0 °F 25.6 °F 30.2 °F 93% 29.77 in 5.0 mi South 6.9 mph - 0.00 in   Overcast
9:56 AM 32.0 °F 25.6 °F 31.1 °F 96% 29.80 in 4.0 mi SSW 6.9 mph - 0.00 in   Overcast
10:01 AM 32.0 °F 25.6 °F 30.2 °F 93% 29.77 in 1.8 mi SSW 6.9 mph - 0.00 in Snow Light Snow
10:05 AM 32.0 °F 27.5 °F 30.2 °F 93% 29.77 in 1.0 mi SSW 4.6 mph - 0.00 in Snow Light Snow
10:14 AM 32.0 °F 27.5 °F 30.2 °F 93% 29.77 in 0.8 mi South 4.6 mph - 0.00 in Snow Light Snow
10:18 AM 32.0 °F 27.5 °F 30.2 °F 93% 29.77 in 0.5 mi South 4.6 mph - 0.00 in Fog , Snow Light Snow
10:25 AM 32.0 °F 27.5 °F 30.2 °F 93% 29.77 in 0.2 mi SSW 4.6 mph - 0.00 in Fog , Snow Light Snow
10:56 AM 32.0 °F 27.5 °F 31.1 °F 96% 29.81 in 0.2 mi WSW 4.6 mph - 0.01 in Fog , Snow Snow
11:38 AM 24.8 °F - 21.2 °F 86% 29.80 in 0.5 mi Calm Calm - 0.01 in Fog , Snow Snow
11:56 AM 24.1 °F - 22.1 °F 92% 29.84 in 0.5 mi Calm Calm - 0.01 in Fog , Snow Light Snow
11:58 AM 24.8 °F - 21.2 °F 86% 29.80 in 1.0 mi Calm Calm - 0.00 in Snow Light Snow
12:03 PM 24.8 °F - 21.2 °F 86% 29.80 in 1.2 mi Calm Calm - 0.00 in Snow Light Snow
12:05 PM 24.8 °F - 21.2 °F 86% 29.80 in 1.0 mi Calm Calm - 0.00 in Snow Light Snow
12:16 PM 24.8 °F - 21.2 °F 86% 29.80 in 1.2 mi Calm Calm - 0.00 in Snow Light Snow
12:26 PM 24.8 °F - 21.2 °F 86% 29.80 in 2.0 mi Calm Calm - 0.00 in Snow Light Snow
12:34 PM 24.8 °F - 21.2 °F 86% 29.80 in 4.0 mi Calm Calm - 0.00 in Snow Light Snow
12:47 PM 24.8 °F - 21.2 °F 86% 29.80 in 1.8 mi Calm Calm - 0.00 in Snow Light Snow
12:56 PM 23.0 °F - 20.1 °F 89% 29.85 in 1.2 mi Calm Calm - 0.00 in Snow Light Snow
1:05 PM 23.0 °F - 19.4 °F 86% 29.81 in 1.5 mi Calm Calm - 0.00 in Snow Light Snow
1:19 PM 23.0 °F - 19.4 °F 86% 29.81 in 1.0 mi Calm Calm - 0.00 in Snow Light Snow
1:25 PM 23.0 °F - 19.4 °F 86% 29.81 in 0.8 mi Calm Calm - 0.00 in Snow Light Snow
1:39 PM 21.2 °F - 19.4 °F 93% 29.82 in 1.0 mi Calm Calm - 0.00 in Snow Light Snow
1:43 PM 23.0 °F - 19.4 °F 86% 29.82 in 1.2 mi Calm Calm - 0.00 in Snow Light Snow
1:56 PM 22.1 °F - 18.1 °F 85% 29.87 in 1.2 mi Calm Calm - 0.00 in Snow Light Snow
2:00 PM 21.2 °F - 19.4 °F 93% 29.83 in 1.0 mi Calm Calm - 0.00 in Snow Light Snow
2:05 PM 21.2 °F - 19.4 °F 93% 29.83 in 0.8 mi Calm Calm - 0.00 in Snow Light Snow
2:11 PM 21.2 °F - 19.4 °F 93% 29.83 in 1.0 mi Calm Calm - 0.00 in Snow Light Snow
2:14 PM 21.2 °F - 17.6 °F 86% 29.83 in 0.8 mi Calm Calm - 0.00 in Snow Light Snow
2:18 PM 21.2 °F - 19.4 °F 93% 29.83 in 0.5 mi Calm Calm - 0.00 in Fog , Snow Snow
2:24 PM 21.2 °F - 19.4 °F 93% 29.84 in 0.8 mi Calm Calm - 0.00 in Snow Light Snow
2:29 PM 21.2 °F - 17.6 °F 86% 29.84 in 1.0 mi Calm Calm - 0.00 in Snow Light Snow
2:31 PM 21.2 °F - 17.6 °F 86% 29.84 in 1.5 mi Calm Calm - 0.00 in Snow Light Snow
2:35 PM 21.2 °F - 17.6 °F 86% 29.84 in 2.0 mi Calm Calm - 0.00 in Snow Light Snow
2:56 PM 20.1 °F - 16.2 °F 85% 29.89 in 2.5 mi Calm Calm - 0.00 in Snow Light Snow
3:04 PM 19.4 °F - 15.8 °F 86% 29.85 in 4.0 mi Calm Calm - 0.00 in Snow Light Snow
3:11 PM 19.4 °F - 14.0 °F 80% 29.85 in 5.0 mi Calm Calm - 0.00 in   Mostly Cloudy
3:44 PM 17.6 °F - 14.0 °F 86% 29.89 in 7.0 mi Calm Calm - 0.00 in   Mostly Cloudy
3:56 PM 18.1 °F - 13.1 °F 81% 29.94 in 4.0 mi Calm Calm - 0.00 in Snow Light Snow
4:56 PM 15.1 °F - 9.1 °F 77% 29.98 in 5.0 mi Calm Calm - 0.00 in Snow Light Snow
5:21 PM 15.8 °F 2.1 °F 6.8 °F 68% 29.95 in 7.0 mi West 12.7 mph 17.3 mph 0.00 in   Mostly Cloudy
5:56 PM 14.0 °F 3.9 °F 5.0 °F 67% 30.02 in 8.0 mi West 6.9 mph 16.1 mph 0.00 in   Overcast
6:56 PM 13.1 °F 1.8 °F 5.0 °F 70% 30.04 in 9.0 mi West 8.1 mph - N/A   Mostly Cloudy
7:56 PM 12.0 °F -1.3 °F 3.0 °F 67% 30.06 in 9.0 mi West 10.4 mph - 0.00 in   Mostly Cloudy
8:56 PM 8.1 °F -3.2 °F 1.0 °F 73% 30.07 in 9.0 mi West 6.9 mph - N/A   Clear
9:56 PM 7.2 °F -5.4 °F 0.1 °F 73% 30.08 in 9.0 mi WSW 8.1 mph - N/A   Scattered Clouds
10:56 PM 3.0 °F -4.4 °F -2.9 °F 76% 30.09 in 9.0 mi SW 3.5 mph - N/A   Clear
11:56 PM 3.0 °F -8.0 °F -0.9 °F 84% 30.09 in 8.0 mi SSW 5.8 mph - N/A   Unknown